Home   Weather   Langesund   Past weeks

Flag for Norway Past Weather in Langesund, Norway — Yesterday and Last 2 Weeks

Now
45 °F

Cool.


Feels Like: 40 °F
Forecast: 30 / 49 °F
Wind: 10 mph from Southwest

Location: Jomfruland Fyr

Current Time: Apr 26, 2017 at 4:23:31 pm

Latest Report: Apr 26, 2017 at 3:00 pm


Visibility: N/A

Pressure: 29.80 "Hg

Humidity: 49%

Dew Point: 27 °F

Location of LangesundLocation

Past Weather in Langesund — Graph

°F

Langesund Temperature Yesterday

Maximum temperature yesterday: 44 °F (at 5:00 pm)
Minimum temperature yesterday: 35 °F (at 3:00 am)
Average temperature yesterday: 40 °F

High & Low Weather Summary for the Past Weeks

 TemperatureHumidityPressure
High56 °F (Apr 12, 2:00 pm)95% (Apr 17, 8:00 am)30.57 "Hg (Apr 17, 8:00 am)
Low29 °F (Apr 16, 5:00 am)22% (Apr 22, 2:00 pm)29.29 "Hg (Apr 24, 10:00 am)
Average42 °F64%29.86 "Hg
* Reported Apr 11 2:00 pm — Apr 26 2:00 pm, Langesund, Weather by CustomWeather, © 2017

Note: Actual official high and low records may vary slightly from our data, if they occured in-between our weather recording intervals... More about our weather records

Advertising

Langesund Weather History for the Previous 24 Hours

Scroll right to see more
 ConditionsComfort  
Time TempWeatherWind HumidityBarometerVisibility
2:00 pm
Wed, Apr 26
44 °FQuite cool.9 mph49%29.80 "HgN/A
1:00 pm47 °FCool.6 mph39%29.80 "HgN/A
12:00 pm49 °FCool.2 mph26%29.80 "HgN/A
11:00 am47 °FCool.2 mph33%29.80 "HgN/A
10:00 am46 °FCool.3 mph32%29.79 "HgN/A
9:00 am44 °FQuite cool.3 mph37%29.79 "HgN/A
8:00 am41 °FQuite cool.3 mph43%29.79 "HgN/A
7:00 am39 °FChilly.3 mph48%29.78 "HgN/A
6:00 am37 °FChilly.3 mph52%29.75 "HgN/A
5:00 am38 °FChilly.3 mph52%29.74 "HgN/A
4:00 am38 °FChilly.3 mph52%29.73 "HgN/A
3:00 am39 °FChilly.3 mph49%29.71 "HgN/A
2:00 am38 °FChilly.3 mph51%29.70 "HgN/A
1:00 am39 °FChilly.2 mph51%29.69 "HgN/A
12:00 am39 °FChilly.2 mph53%29.68 "HgN/A
11:00 pm
Tue, Apr 25
41 °FQuite cool.3 mph51%29.66 "HgN/A
10:00 pm41 °FQuite cool.2 mph53%29.65 "HgN/A
9:00 pm43 °FQuite cool.7 mph48%29.63 "HgN/A
8:00 pm44 °FQuite cool.7 mph48%29.61 "HgN/A
7:00 pm44 °FQuite cool.7 mph51%29.59 "HgN/A
6:00 pm43 °FQuite cool.7 mph63%29.59 "HgN/A
5:00 pm44 °FQuite cool.9 mph53%29.56 "HgN/A
4:00 pm44 °FQuite cool.8 mph53%29.55 "HgN/A
Weather by CustomWeather, © 2017

See weather overviewHow to use our weather pages